Погода в Кетском

Россия / Красноярский край     57°34′54″N   91°52′40″E
темп.,
°C
ветер,
м/с
пор.,
м/с
влажн.,
%
обл.,
%
осадки,
мм/ч
давл.,
гПа
погр.,
м
25 июня, сб
сб2501:00+14зюз4119831 0.8 1001320
04:00+13юз3109823 0.0 1002283
07:00+15юз410968 0.4 1002395
10:00+19зюз48885 2.4 1001609
13:00+22зюз58655 3.9 10021485
16:00+22зюз487185 0.9 10011177
19:00+20зюз4986100 1.8 1001624
22:00+17ююз31095100 0.7 1001208
26 июня, вс
вс2601:00+17ююз4119729 1.3 1000283
04:00+17юз4119898 0.3 999403
07:00+18зюз51095100 0.3 1001545
10:00+22зюз4670100 0.0 1001894
13:00+22з3571100 0.1 1001808
16:00+22ююз3883100 1.0 1001501
19:00+20с2393100 1.2 99956
22:00+20юв51493100 3.1 996362
27 июня, пн
пн2701:00+18ююв413935 3.4 994317
04:00+17ююз41196100 1.8 994236
07:00+19юз5129458 1.9 996590
10:00+19зюз598613 0.1 998979
13:00+24з5754100 0.1 9991526
16:00+26зюз364715 0.0 9982018
19:00+24ююз246798 0.0 996162
22:00+18ю3694100 2.3 994114
28 июня, вт
вт2801:00+18ююв41098100 9.8 994322
04:00+17юз61397100 0.0 995773
07:00+14юз6128983 0.1 998827
10:00+13юз61180100 0.1 10011013
13:00+15юз6106469 0.1 10031287
16:00+17зюз6105679 0.2 10041951
19:00+17зюз5106376 0.2 10051460
22:00+12ююз368633 0.0 1006116
29 июня, ср
ср2901:00+10юз3109632 0.1 1008298
04:00+8юз399726 0.0 1008237
07:00+12юз378212 0.0 1008376
10:00+16юз346294 0.0 10071373
13:00+18юз24557 0.1 10061357
16:00+22юз14459 0.0 10031760
19:00+21ю245911 0.0 1002653
22:00+15юв3479100 0.0 100168